Skip Page Navigation
NASA JPL Caltech
NASA Logo - Jet Propulsion Laboratory + View the NASA Portal
+ Center for Near-Earth Object Studies
JPL Home Earth Solar System Stars & Galaxies Technology
JPL Solar System Dynamics
BODIES ORBITS EPHEMERIDES TOOLS PHYSICAL DATA DISCOVERY FAQ SITE MAP
JPL Small-Body Database Browser
Search: [ help ]  
135685 (2002 OM6)
Classification: Main-belt Asteroid          SPK-ID: 2135685
Ephemeris | Orbit Diagram | Orbital Elements | Mission Design | Physical Parameters | Discovery Circumstances | Close-Approach Data ]

[ show orbit diagram ]
Orbital Elements at Epoch 2459200.5 (2020-Dec-17.0) TDB
Reference: JPL 16 (heliocentric ecliptic J2000)
 Element Value Uncertainty (1-sigma)   Units 
e .2201443302734841 6.5602e-08  
a 2.588912267916593 1.8346e-08 au
q 2.018977910559288 1.7382e-07 au
i 10.85928167891707 6.0515e-06 deg
node 271.2088715495483 3.0972e-05 deg
peri 321.6822167912637 3.3838e-05 deg
M 208.6044867739457 1.5578e-05 deg
tp 2459840.359954621130
(2022-Sep-17.85995462)
7.0743e-05 TDB
period 1521.508654748989
4.17
1.6173e-05
4.428e-08
d
yr
n .2366072640312328 2.5151e-09 deg/d
Q 3.158846625273898 2.2385e-08 au
  Orbit Determination Parameters
   # obs. used (total)      262  
   data-arc span      7291 days (19.96 yr)  
   first obs. used      2001-01-26  
   last obs. used      2021-01-12  
   planetary ephem.      DE441  
   SB-pert. ephem.      SB441-N16  
   condition code      0  
   norm. resid. RMS      .53597  
   source      ORB  
   producer      Otto Matic  
   solution date      2021-Apr-13 18:14:07  

Additional Information
 Earth MOID = 1.01777 au 
 Jupiter MOID = 1.92415 au 
 T_jup = 3.361 
[ show covariance matrix ]

Ephemeris | Orbit Diagram | Orbital Elements | Mission Design | Physical Parameters | Discovery Circumstances | Close-Approach Data ]

Physical Parameter Table
Parameter Symbol Value Units Sigma Reference Notes
absolute magnitude H 16.24   n/a MPCxxxxx  

135685 (2002 OM6)          Discovered 2002-Jul-20 by NEAT at Palomar
Reference: 20060907/Numbers.arcLast Updated: 2006-09-10

[ show close-approach data ]
Ephemeris | Orbit Diagram | Orbital Elements | Mission Design | Physical Parameters | Discovery Circumstances | Close-Approach Data ]
ABOUT SSD CREDITS/AWARDS PRIVACY/COPYRIGHT GLOSSARY LINKS
FirstGov 2021-May-11 18:09 UT
(server date/time)  
NASA Home Page
Site Manager:   Ryan S. Park
Webmaster  Alan B. Chamberlin